To NAV CANADA Home Page Login to a new session Search on AWWS site Feedback and Comments Disclaimer Vers la page française équivalente Tips FAQ What's new on the site To the Forecasts and Observations / NOTAM section To "File a Flight Plan" website Publications and other links Update of the User's profile FIC Telephone Numbers My Weather Data Folder Route Weather Data Regional Weather Data Local Weather Data To the Forecasts and Observations / NOTAM section
Request Generated 05/31/2016 at 15:57:27 UTC . Weather information available at that time is displayed.

METAR/TAF

KANGIRSUK/QC    

METAR CYAS 311500Z 35007KT 15SM -SN OVC030 00/M06 A3009 RMK SC8
SLP203=
METAR CYAS 311400Z 36008KT 15SM -SN OVC045 M00/M06 A3009 RMK SC8
SLP202=
SPECI CYAS 311326Z 01008KT 15SM -SN OVC045 M00/M06 A3009 RMK SC8
SLP203=
METAR CYAS 311300Z 34008KT 15SM OVC040 M01/M05 A3010 RMK SC8 SLP203=

CYAS - No TAF is issued for this station

Your time UTC time
Weather data provided by Environment Canada and NAV CANADA